Regional Weather Roundup
Issued by NWS

Home | Current Version | Previous Version | Text Only | Print | Product List | Glossary On
Versions: 1 2 3 4 5 6 7 8 9 10 11 12 13 14 15 16 17 18 19 20 21 22 23 24 25 26 27 28 29 30 31 32 33 34 35 36 37 38 39 40 41 42 43 44 45 46 47 48 49 50
000
ASUS42 KKEY 292010
RWRKEY

FLORIDA REGIONAL WEATHER ROUNDUP FOR THE FLORIDA KEYS
NATIONAL WEATHER SERVICE KEY WEST FLORIDA
400 PM EDT SUN MAR 29 2015

...SOUTH FLORIDA AND THE KEYS...

CITY           SKY/WX    TMP DP  RH WIND       PRES   REMARKS
FORT MYERS     SUNNY     76  43  30 N10       30.26F
SW REGIONAL AP SUNNY     74  43  32 NE8G21    30.26F
NAPLES         SUNNY     79  44  28 NE10G17   30.25F
MIAMI          PTSUNNY   76  47  35 NE15G22   30.24F
WEST KENDALL   MOSUNNY   78  53  41 NE14G20   30.23F
HOMESTEAD      SUNNY     75  56  51 NE16      30.23S
MARATHON       MOSUNNY   77  48  35 NE12      30.23F
BOCA CHICA NAS MOSUNNY   76  51  41 N14       30.24F
KEY WEST INTL  MOSUNNY   76  53  44 NE12      30.25F

...INTERNATIONAL WEATHER...

CITY           SKY/WX    TMP DP  RH WIND       PRES   REMARKS
NASSAU BAHAMAS PTSUNNY   73  55  53 N13       30.22S
CANCUN MEXICO  MOSUNNY   81  61  50 E12G23    30.17F
COZUMEL MEXICO PTSUNNY   75  64  69 E16       30.15F

ADJACENT COASTAL WATERS...

STATION/POSITION TIME  SKY/WX   TEMP    WIND        PRES    WAVE
                                AIR SEA DIR/SP/G            HT/PER
                 (UTC)          (F)     (DEG/KT/KT) (MB)    (FT/S)
PULASKI SHOAL LI 1900            69      40/ 21/ 22 1024.7F
SAND KEY         1950            71      50/ 14/ 17 1024.1F
SOMBRERO KEY     2000            73      50/ 11/ 12 1024.3F
LONG KEY         2000            72 74   50/ 11/ 13 1024.4F
MOLASSES REEF    2000            71 77   40/ 18/ 20 1023.4F
FOWEY ROCKS      NOT AVBL

$$



USA.gov is the U.S. government's official web portal to all federal, state and local government web resources and services.